Precipitable_Water
1.57 1.50 1.58 1.53 1.53 1.58 1.66 1.69 1.56 1.50 1.36 1.32 1.39 1.57 1.61 1.58 1.57 1.56 1.64 1.65 1.62 1.58 1.50 1.45 1.37 1.46 1.54 1.71 1.68 1.60 1.50 1.35 1.05
1.72 1.58 1.44 1.54 1.53 1.56 1.61 1.71 1.56 1.50 1.60 1.59 1.57 1.63 1.57 1.53 1.53 1.55 1.59 1.49 1.48 1.43 1.31 1.19 1.14 1.23 1.23 1.36 1.47 1.48 1.44 1.26 0.94
1.70 1.69 1.60 1.38 1.37 1.46 1.53 1.62 1.68 1.60 1.60 1.72 1.66 1.63 1.62 1.62 1.58 1.60 1.52 1.51 1.61 1.63 1.54 1.36 1.18 1.07 1.11 1.04 1.10 1.21 1.30 1.15 0.93
1.65 1.70 1.66 1.63 1.47 1.40 1.41 1.49 1.66 1.73 1.64 1.65 1.66 1.64 1.56 1.53 1.60 1.62 1.60 1.59 1.62 1.59 1.51 1.43 1.37 1.36 1.24 0.96 0.93 1.05 1.17 1.05 0.88
1.64 1.65 1.66 1.63 1.61 1.49 1.40 1.41 1.44 1.52 1.56 1.54 1.49 1.53 1.49 1.43 1.42 1.53 1.55 1.56 1.62 1.60 1.54 1.43 1.37 1.40 1.48 1.24 1.00 1.04 1.10 1.05 0.92
1.50 1.61 1.68 1.64 1.59 1.52 1.46 1.45 1.46 1.43 1.43 1.49 1.57 1.51 1.37 1.29 1.27 1.30 1.38 1.44 1.47 1.51 1.42 1.29 1.26 1.46 1.51 1.36 1.30 1.15 1.12 1.06 0.89
1.43 1.51 1.62 1.62 1.60 1.56 1.46 1.45 1.49 1.53 1.48 1.45 1.53 1.49 1.41 1.36 1.27 1.17 1.12 1.15 1.21 1.35 1.30 1.14 1.11 1.29 1.38 1.34 1.25 1.23 1.24 1.07 0.90
1.32 1.53 1.55 1.54 1.53 1.50 1.53 1.54 1.53 1.52 1.57 1.54 1.51 1.53 1.53 1.48 1.40 1.35 1.27 1.13 1.03 0.99 0.90 0.84 0.89 1.09 1.22 1.28 1.22 1.01 1.06 1.01 0.92
1.10 1.38 1.54 1.50 1.52 1.39 1.51 1.53 1.61 1.60 1.59 1.59 1.59 1.58 1.55 1.49 1.44 1.51 1.39 1.28 1.17 1.09 0.96 0.82 0.93 0.98 1.16 1.23 1.21 1.06 0.93 0.96 0.90
1.03 1.20 1.43 1.54 1.56 1.52 1.42 1.44 1.59 1.60 1.58 1.60 1.62 1.65 1.64 1.62 1.51 1.45 1.39 1.46 1.42 1.32 1.20 0.98 1.01 1.04 1.16 1.34 1.24 1.13 0.85 0.98 0.98
0.91 1.01 1.14 1.33 1.48 1.56 1.55 1.64 1.50 1.42 1.48 1.55 1.58 1.63 1.65 1.62 1.59 1.56 1.54 1.48 1.40 1.42 1.36 1.20 1.16 1.34 1.22 1.29 1.31 1.06 0.91 0.90 1.00
0.95 0.94 0.96 1.10 1.25 1.34 1.43 1.49 1.55 1.51 1.49 1.37 1.42 1.54 1.61 1.65 1.61 1.52 1.48 1.48 1.41 1.48 1.50 1.37 1.20 1.25 1.46 1.40 1.35 1.22 1.11 0.97 0.99
0.91 0.88 0.88 0.93 1.04 1.09 1.16 1.20 1.27 1.34 1.37 1.39 1.42 1.39 1.40 1.43 1.52 1.49 1.48 1.39 1.32 1.33 1.44 1.44 1.35 1.27 1.32 1.54 1.54 1.44 1.33 1.18 1.11
0.86 0.83 0.89 0.93 0.90 0.92 0.96 1.01 1.04 1.06 1.17 1.27 1.32 1.34 1.37 1.46 1.48 1.49 1.49 1.42 1.32 1.38 1.47 1.41 1.33 1.32 1.35 1.44 1.58 1.63 1.57 1.45 1.26
0.79 0.78 0.79 0.83 0.85 0.86 0.85 0.83 0.89 0.89 0.92 0.98 1.08 1.19 1.26 1.30 1.34 1.40 1.42 1.42 1.47 1.50 1.50 1.43 1.34 1.27 1.41 1.49 1.53 1.57 1.66 1.60 1.49
0.71 0.73 0.78 0.80 0.78 0.79 0.79 0.81 0.78 0.81 0.87 0.80 0.82 0.85 1.02 1.13 1.19 1.27 1.38 1.39 1.41 1.44 1.41 1.49 1.54 1.51 1.49 1.51 1.57 1.54 1.61 1.62 1.64
0.66 0.66 0.67 0.70 0.71 0.71 0.72 0.72 0.73 0.76 0.80 0.71 0.70 0.57 0.66 0.84 0.95 1.10 1.22 1.28 1.31 1.32 1.39 1.43 1.49 1.49 1.49 1.49 1.55 1.61 1.55 1.60 1.77
0.58 0.60 0.62 0.64 0.65 0.65 0.69 0.71 0.69 0.64 0.71 0.74 0.66 0.56 0.53 0.64 0.83 0.90 1.02 1.16 1.27 1.36 1.41 1.41 1.47 1.52 1.54 1.57 1.57 1.61 1.60 1.57 1.58
0.45 0.48 0.53 0.57 0.59 0.62 0.64 0.70 0.71 0.71 0.65 0.71 0.74 0.73 0.69 0.58 0.55 0.73 0.90 1.03 1.10 1.17 1.25 1.28 1.34 1.38 1.44 1.50 1.52 1.51 1.56 1.56 1.56
0.34 0.36 0.37 0.39 0.46 0.52 0.56 0.61 0.66 0.70 0.70 0.70 0.69 0.69 0.70 0.69 0.61 0.57 0.67 0.81 0.89 0.99 1.09 1.16 1.20 1.24 1.29 1.34 1.37 1.42 1.44 1.50 1.51
Wind_Speed
18 18 16 15 15 16 15 14 14 14 13 13 15 15 15 15 14 14 14 13 13 13 13 13 13 14 15 15 15 14 13 12 12
20 20 18 18 17 16 17 16 15 15 15 15 15 16 16 16 16 15 15 15 14 14 13 13 14 14 15 16 15 15 15 14 12
20 21 20 18 18 18 18 18 17 17 17 17 17 17 18 17 17 17 17 16 16 15 15 14 14 15 16 16 16 16 16 15 14
22 21 21 20 19 19 19 20 19 18 19 20 19 19 19 19 19 19 18 18 17 17 17 16 16 17 16 16 16 18 18 17 15
26 24 23 22 21 21 21 21 21 21 20 21 22 22 21 21 21 21 20 19 19 18 18 18 18 19 19 18 17 18 19 18 17
28 27 25 24 23 22 21 23 23 22 22 23 23 23 23 23 23 23 22 22 21 20 20 20 20 21 21 20 19 20 21 20 19
28 29 27 26 25 24 24 23 25 25 23 24 25 25 25 24 24 24 24 24 23 23 22 21 22 22 23 23 22 23 23 23 22
28 28 30 29 28 27 26 26 26 27 27 26 26 27 28 27 27 26 26 25 25 24 23 23 23 24 24 25 23 23 25 25 25
28 28 29 30 30 31 28 28 28 28 29 29 29 29 30 29 29 28 28 28 27 26 25 24 25 25 25 27 26 24 25 27 26
27 27 27 28 30 30 32 32 28 26 28 30 31 31 32 32 32 31 31 30 30 28 27 26 26 26 27 28 27 26 26 28 28
24 26 27 28 29 29 28 25 30 30 30 30 32 33 32 30 33 33 33 33 32 32 31 29 28 28 28 30 30 28 27 29 30
18 23 25 28 30 30 31 33 31 31 32 34 34 35 35 35 34 35 34 35 34 34 33 33 32 31 31 31 32 31 30 30 32
16 19 22 26 28 31 31 32 33 34 35 34 35 37 37 38 39 38 37 39 36 38 37 38 37 35 35 35 35 35 33 32 33
17 19 20 22 26 29 30 33 34 35 36 36 37 37 37 36 37 38 39 37 39 41 39 38 40 39 38 37 37 38 37 35 35
17 20 22 24 25 27 30 32 34 36 37 39 40 39 39 40 40 39 40 39 38 38 40 40 40 41 42 42 40 40 41 40 38
16 19 22 23 25 27 29 30 33 34 36 38 41 42 42 42 41 39 41 41 41 40 41 42 41 42 43 42 43 43 42 42 43
17 18 19 21 25 27 29 31 33 33 34 36 37 38 40 43 43 42 41 43 43 41 41 43 44 43 44 46 44 45 46 45 44
19 19 20 21 22 23 26 28 31 33 33 34 35 35 36 37 39 41 41 40 39 39 40 41 44 47 46 46 46 45 46 48 47
21 22 22 23 24 24 25 26 27 30 32 34 34 36 36 36 38 37 36 36 36 36 35 32 32 38 42 43 46 47 45 47 48
22 23 23 24 25 25 25 26 26 27 29 30 33 35 36 37 37 38 38 38 37 36 35 34 31 31 33 36 38 44 46 47 49
Wind_Direction
254 254 253 252 249 244 240 236 231 224 219 213 208 204 201 198 198 196 193 193 192 190 192 193 196 198 196 195 196 198 199 193 190
253 252 254 251 248 244 238 235 230 225 221 216 212 209 206 206 204 203 202 201 199 199 200 202 202 204 205 206 207 206 203 201 198
254 250 250 250 247 244 238 234 232 227 225 221 217 213 211 211 211 209 208 207 208 210 211 211 211 211 210 211 212 211 206 205 202
252 251 247 249 245 243 239 236 233 231 229 225 222 219 218 218 217 215 215 216 217 219 218 219 219 216 215 216 215 215 209 208 209
249 250 249 247 245 244 242 238 237 235 232 230 227 223 223 222 221 221 221 221 222 223 224 226 225 222 221 221 221 214 212 213 212
249 249 248 246 246 244 243 239 237 236 234 232 228 225 226 225 225 225 225 226 228 228 229 232 229 227 224 225 221 220 217 216 216
250 247 247 246 245 245 244 242 239 236 235 233 230 229 228 228 228 228 229 230 232 231 234 236 232 229 227 228 228 225 221 222 222
248 247 246 246 245 244 246 244 242 239 237 235 233 233 233 233 232 232 232 233 234 234 236 237 234 232 231 229 229 228 227 226 226
248 248 246 246 245 244 246 247 242 241 239 239 237 237 236 236 235 236 236 237 236 237 238 239 237 234 234 231 230 231 229 228 227
249 246 246 245 247 248 246 243 243 242 242 242 241 240 240 239 238 239 238 240 239 238 239 240 238 237 236 231 232 234 233 230 229
249 247 247 247 248 247 246 243 246 248 247 246 245 243 244 243 240 241 240 242 241 241 241 241 240 239 237 233 234 235 235 232 232
255 251 250 251 251 251 252 251 252 250 250 249 249 247 246 246 245 241 243 242 243 240 243 242 242 241 239 236 235 237 237 237 234
264 260 257 256 255 254 254 254 254 252 252 251 251 250 249 248 247 248 246 245 245 243 246 244 244 243 241 240 239 238 238 239 236
272 268 267 265 261 259 258 256 256 255 253 252 252 252 251 250 249 249 247 246 246 245 246 245 246 243 242 242 242 240 239 239 238
282 276 273 269 267 264 263 260 258 256 256 255 253 252 252 252 250 250 247 249 247 246 246 248 244 244 246 244 243 242 241 240 239
295 285 279 276 272 270 269 264 261 259 259 258 255 254 252 251 251 251 249 248 250 250 249 248 247 246 245 243 244 243 243 241 240
305 300 293 285 278 275 272 268 264 261 261 258 257 255 253 251 250 251 251 251 251 250 251 249 247 247 247 244 245 246 244 242 241
309 303 297 293 288 283 277 272 268 263 261 261 257 256 253 254 250 249 250 251 251 250 251 252 250 249 247 248 245 245 244 243 242
308 304 300 296 292 288 283 278 272 266 263 260 259 256 255 254 252 250 248 249 249 249 247 251 251 248 247 245 245 245 246 242 242
312 308 305 301 295 290 285 280 276 271 266 263 260 257 256 254 252 250 249 249 249 249 250 247 252 249 247 248 249 248 247 243 243